Index of /20260508/WXO-DD/model_rdps/10km/12/037
Name Last modified Size Description
Parent Directory -
20260508T12Z_MSC_RDPS_AbsoluteVorticity_IsbL-0250_RLatLon0.09_PT037H.grib2 2026-05-08 14:52 612K
20260508T12Z_MSC_RDPS_AbsoluteVorticity_IsbL-0500_RLatLon0.09_PT037H.grib2 2026-05-08 14:52 571K
20260508T12Z_MSC_RDPS_AbsoluteVorticity_IsbL-0700_RLatLon0.09_PT037H.grib2 2026-05-08 14:52 626K
20260508T12Z_MSC_RDPS_AbsoluteVorticity_IsbL-0850_RLatLon0.09_PT037H.grib2 2026-05-08 14:52 787K
20260508T12Z_MSC_RDPS_AirTemp_AGL-120m_RLatLon0.09_PT037H.grib2 2026-05-08 14:52 371K
20260508T12Z_MSC_RDPS_AirTemp_AGL-2m_RLatLon0.09_PT037H.grib2 2026-05-08 14:52 625K
20260508T12Z_MSC_RDPS_AirTemp_AGL-40m_RLatLon0.09_PT037H.grib2 2026-05-08 14:52 382K
20260508T12Z_MSC_RDPS_AirTemp_AGL-80m_RLatLon0.09_PT037H.grib2 2026-05-08 14:52 375K
20260508T12Z_MSC_RDPS_AirTemp_IsbL-0001_RLatLon0.09_PT037H.grib2 2026-05-08 14:52 306K
20260508T12Z_MSC_RDPS_AirTemp_IsbL-0005_RLatLon0.09_PT037H.grib2 2026-05-08 14:52 380K
20260508T12Z_MSC_RDPS_AirTemp_IsbL-0010_RLatLon0.09_PT037H.grib2 2026-05-08 14:52 302K
20260508T12Z_MSC_RDPS_AirTemp_IsbL-0020_RLatLon0.09_PT037H.grib2 2026-05-08 14:52 318K
20260508T12Z_MSC_RDPS_AirTemp_IsbL-0030_RLatLon0.09_PT037H.grib2 2026-05-08 14:52 336K
20260508T12Z_MSC_RDPS_AirTemp_IsbL-0050_RLatLon0.09_PT037H.grib2 2026-05-08 14:52 307K
20260508T12Z_MSC_RDPS_AirTemp_IsbL-0100_RLatLon0.09_PT037H.grib2 2026-05-08 14:52 429K
20260508T12Z_MSC_RDPS_AirTemp_IsbL-0150_RLatLon0.09_PT037H.grib2 2026-05-08 14:52 417K
20260508T12Z_MSC_RDPS_AirTemp_IsbL-0175_RLatLon0.09_PT037H.grib2 2026-05-08 14:52 412K
20260508T12Z_MSC_RDPS_AirTemp_IsbL-0200_RLatLon0.09_PT037H.grib2 2026-05-08 14:52 415K
20260508T12Z_MSC_RDPS_AirTemp_IsbL-0225_RLatLon0.09_PT037H.grib2 2026-05-08 14:52 416K
20260508T12Z_MSC_RDPS_AirTemp_IsbL-0250_RLatLon0.09_PT037H.grib2 2026-05-08 14:52 425K
20260508T12Z_MSC_RDPS_AirTemp_IsbL-0275_RLatLon0.09_PT037H.grib2 2026-05-08 14:52 406K
20260508T12Z_MSC_RDPS_AirTemp_IsbL-0300_RLatLon0.09_PT037H.grib2 2026-05-08 14:52 435K
20260508T12Z_MSC_RDPS_AirTemp_IsbL-0350_RLatLon0.09_PT037H.grib2 2026-05-08 14:52 422K
20260508T12Z_MSC_RDPS_AirTemp_IsbL-0400_RLatLon0.09_PT037H.grib2 2026-05-08 14:52 427K
20260508T12Z_MSC_RDPS_AirTemp_IsbL-0450_RLatLon0.09_PT037H.grib2 2026-05-08 14:52 436K
20260508T12Z_MSC_RDPS_AirTemp_IsbL-0500_RLatLon0.09_PT037H.grib2 2026-05-08 14:52 448K
20260508T12Z_MSC_RDPS_AirTemp_IsbL-0550_RLatLon0.09_PT037H.grib2 2026-05-08 14:52 467K
20260508T12Z_MSC_RDPS_AirTemp_IsbL-0600_RLatLon0.09_PT037H.grib2 2026-05-08 14:52 487K
20260508T12Z_MSC_RDPS_AirTemp_IsbL-0650_RLatLon0.09_PT037H.grib2 2026-05-08 14:52 504K
20260508T12Z_MSC_RDPS_AirTemp_IsbL-0700_RLatLon0.09_PT037H.grib2 2026-05-08 14:52 530K
20260508T12Z_MSC_RDPS_AirTemp_IsbL-0750_RLatLon0.09_PT037H.grib2 2026-05-08 14:52 530K
20260508T12Z_MSC_RDPS_AirTemp_IsbL-0800_RLatLon0.09_PT037H.grib2 2026-05-08 14:52 458K
20260508T12Z_MSC_RDPS_AirTemp_IsbL-0850_RLatLon0.09_PT037H.grib2 2026-05-08 14:52 499K
20260508T12Z_MSC_RDPS_AirTemp_IsbL-0875_RLatLon0.09_PT037H.grib2 2026-05-08 14:52 516K
20260508T12Z_MSC_RDPS_AirTemp_IsbL-0900_RLatLon0.09_PT037H.grib2 2026-05-08 14:52 522K
20260508T12Z_MSC_RDPS_AirTemp_IsbL-0925_RLatLon0.09_PT037H.grib2 2026-05-08 14:52 523K
20260508T12Z_MSC_RDPS_AirTemp_IsbL-0950_RLatLon0.09_PT037H.grib2 2026-05-08 14:52 522K
20260508T12Z_MSC_RDPS_AirTemp_IsbL-0970_RLatLon0.09_PT037H.grib2 2026-05-08 14:52 518K
20260508T12Z_MSC_RDPS_AirTemp_IsbL-0985_RLatLon0.09_PT037H.grib2 2026-05-08 14:52 505K
20260508T12Z_MSC_RDPS_AirTemp_IsbL-1000_RLatLon0.09_PT037H.grib2 2026-05-08 14:52 492K
20260508T12Z_MSC_RDPS_AirTemp_IsbL-1015_RLatLon0.09_PT037H.grib2 2026-05-08 14:52 494K
20260508T12Z_MSC_RDPS_Albedo_Sfc_RLatLon0.09_PT037H.grib2 2026-05-08 14:52 158K
20260508T12Z_MSC_RDPS_CAPE_Sfc_RLatLon0.09_PT037H.grib2 2026-05-08 14:52 1.7M
20260508T12Z_MSC_RDPS_CIN_Sfc_RLatLon0.09_PT037H.grib2 2026-05-08 14:52 1.4M
20260508T12Z_MSC_RDPS_CloudWater_EAtm_RLatLon0.09_PT037H.grib2 2026-05-08 14:52 229K
20260508T12Z_MSC_RDPS_ConvectivePrecip-Accum_Sfc_RLatLon0.09_PT037H.grib2 2026-05-08 14:52 1.0M
20260508T12Z_MSC_RDPS_DewPointDepression_AGL-2m_RLatLon0.09_PT037H.grib2 2026-05-08 14:52 406K
20260508T12Z_MSC_RDPS_DewPointDepression_IsbL-0001_RLatLon0.09_PT037H.grib2 2026-05-08 14:52 193
20260508T12Z_MSC_RDPS_DewPointDepression_IsbL-0005_RLatLon0.09_PT037H.grib2 2026-05-08 14:52 193
20260508T12Z_MSC_RDPS_DewPointDepression_IsbL-0010_RLatLon0.09_PT037H.grib2 2026-05-08 14:52 193
20260508T12Z_MSC_RDPS_DewPointDepression_IsbL-0020_RLatLon0.09_PT037H.grib2 2026-05-08 14:52 193
20260508T12Z_MSC_RDPS_DewPointDepression_IsbL-0030_RLatLon0.09_PT037H.grib2 2026-05-08 14:52 193
20260508T12Z_MSC_RDPS_DewPointDepression_IsbL-0050_RLatLon0.09_PT037H.grib2 2026-05-08 14:52 79K
20260508T12Z_MSC_RDPS_DewPointDepression_IsbL-0100_RLatLon0.09_PT037H.grib2 2026-05-08 14:52 114K
20260508T12Z_MSC_RDPS_DewPointDepression_IsbL-0150_RLatLon0.09_PT037H.grib2 2026-05-08 14:52 152K
20260508T12Z_MSC_RDPS_DewPointDepression_IsbL-0175_RLatLon0.09_PT037H.grib2 2026-05-08 14:52 179K
20260508T12Z_MSC_RDPS_DewPointDepression_IsbL-0200_RLatLon0.09_PT037H.grib2 2026-05-08 14:52 222K
20260508T12Z_MSC_RDPS_DewPointDepression_IsbL-0225_RLatLon0.09_PT037H.grib2 2026-05-08 14:52 270K
20260508T12Z_MSC_RDPS_DewPointDepression_IsbL-0250_RLatLon0.09_PT037H.grib2 2026-05-08 14:52 311K
20260508T12Z_MSC_RDPS_DewPointDepression_IsbL-0275_RLatLon0.09_PT037H.grib2 2026-05-08 14:52 313K
20260508T12Z_MSC_RDPS_DewPointDepression_IsbL-0300_RLatLon0.09_PT037H.grib2 2026-05-08 14:52 324K
20260508T12Z_MSC_RDPS_DewPointDepression_IsbL-0350_RLatLon0.09_PT037H.grib2 2026-05-08 14:52 325K
20260508T12Z_MSC_RDPS_DewPointDepression_IsbL-0400_RLatLon0.09_PT037H.grib2 2026-05-08 14:52 335K
20260508T12Z_MSC_RDPS_DewPointDepression_IsbL-0450_RLatLon0.09_PT037H.grib2 2026-05-08 14:52 342K
20260508T12Z_MSC_RDPS_DewPointDepression_IsbL-0500_RLatLon0.09_PT037H.grib2 2026-05-08 14:52 348K
20260508T12Z_MSC_RDPS_DewPointDepression_IsbL-0550_RLatLon0.09_PT037H.grib2 2026-05-08 14:52 360K
20260508T12Z_MSC_RDPS_DewPointDepression_IsbL-0600_RLatLon0.09_PT037H.grib2 2026-05-08 14:52 376K
20260508T12Z_MSC_RDPS_DewPointDepression_IsbL-0650_RLatLon0.09_PT037H.grib2 2026-05-08 14:52 386K
20260508T12Z_MSC_RDPS_DewPointDepression_IsbL-0700_RLatLon0.09_PT037H.grib2 2026-05-08 14:52 399K
20260508T12Z_MSC_RDPS_DewPointDepression_IsbL-0750_RLatLon0.09_PT037H.grib2 2026-05-08 14:52 420K
20260508T12Z_MSC_RDPS_DewPointDepression_IsbL-0800_RLatLon0.09_PT037H.grib2 2026-05-08 14:52 452K
20260508T12Z_MSC_RDPS_DewPointDepression_IsbL-0850_RLatLon0.09_PT037H.grib2 2026-05-08 14:52 471K
20260508T12Z_MSC_RDPS_DewPointDepression_IsbL-0875_RLatLon0.09_PT037H.grib2 2026-05-08 14:52 467K
20260508T12Z_MSC_RDPS_DewPointDepression_IsbL-0900_RLatLon0.09_PT037H.grib2 2026-05-08 14:52 456K
20260508T12Z_MSC_RDPS_DewPointDepression_IsbL-0925_RLatLon0.09_PT037H.grib2 2026-05-08 14:52 445K
20260508T12Z_MSC_RDPS_DewPointDepression_IsbL-0950_RLatLon0.09_PT037H.grib2 2026-05-08 14:52 434K
20260508T12Z_MSC_RDPS_DewPointDepression_IsbL-0970_RLatLon0.09_PT037H.grib2 2026-05-08 14:52 428K
20260508T12Z_MSC_RDPS_DewPointDepression_IsbL-0985_RLatLon0.09_PT037H.grib2 2026-05-08 14:52 422K
20260508T12Z_MSC_RDPS_DewPointDepression_IsbL-1000_RLatLon0.09_PT037H.grib2 2026-05-08 14:52 417K
20260508T12Z_MSC_RDPS_DewPointDepression_IsbL-1015_RLatLon0.09_PT037H.grib2 2026-05-08 14:52 407K
20260508T12Z_MSC_RDPS_DewPoint_AGL-2m_RLatLon0.09_PT037H.grib2 2026-05-08 14:52 391K
20260508T12Z_MSC_RDPS_DownwardLongwaveRadiationFlux-Accum_Sfc_RLatLon0.09_PT037H.grib2 2026-05-08 14:52 378K
20260508T12Z_MSC_RDPS_DownwardShortwaveRadiationFlux-Accum_NTAtm_RLatLon0.09_PT037H.grib2 2026-05-08 14:52 140K
20260508T12Z_MSC_RDPS_DownwardShortwaveRadiationFlux-Accum_Sfc_RLatLon0.09_PT037H.grib2 2026-05-08 14:52 553K
20260508T12Z_MSC_RDPS_FreezingRain-Accum1h_Sfc_RLatLon0.09_PT037H.grib2 2026-05-08 14:52 19K
20260508T12Z_MSC_RDPS_FreezingRain-Accum_Sfc_RLatLon0.09_PT037H.grib2 2026-05-08 14:52 131K
20260508T12Z_MSC_RDPS_GeopotentialHeight_IsbL-0001_RLatLon0.09_PT037H.grib2 2026-05-08 14:52 243K
20260508T12Z_MSC_RDPS_GeopotentialHeight_IsbL-0005_RLatLon0.09_PT037H.grib2 2026-05-08 14:52 306K
20260508T12Z_MSC_RDPS_GeopotentialHeight_IsbL-0010_RLatLon0.09_PT037H.grib2 2026-05-08 14:52 308K
20260508T12Z_MSC_RDPS_GeopotentialHeight_IsbL-0020_RLatLon0.09_PT037H.grib2 2026-05-08 14:52 307K
20260508T12Z_MSC_RDPS_GeopotentialHeight_IsbL-0030_RLatLon0.09_PT037H.grib2 2026-05-08 14:52 308K
20260508T12Z_MSC_RDPS_GeopotentialHeight_IsbL-0050_RLatLon0.09_PT037H.grib2 2026-05-08 14:52 308K
20260508T12Z_MSC_RDPS_GeopotentialHeight_IsbL-0100_RLatLon0.09_PT037H.grib2 2026-05-08 14:52 285K
20260508T12Z_MSC_RDPS_GeopotentialHeight_IsbL-0150_RLatLon0.09_PT037H.grib2 2026-05-08 14:52 228K
20260508T12Z_MSC_RDPS_GeopotentialHeight_IsbL-0175_RLatLon0.09_PT037H.grib2 2026-05-08 14:52 231K
20260508T12Z_MSC_RDPS_GeopotentialHeight_IsbL-0200_RLatLon0.09_PT037H.grib2 2026-05-08 14:52 234K
20260508T12Z_MSC_RDPS_GeopotentialHeight_IsbL-0225_RLatLon0.09_PT037H.grib2 2026-05-08 14:52 266K
20260508T12Z_MSC_RDPS_GeopotentialHeight_IsbL-0250_RLatLon0.09_PT037H.grib2 2026-05-08 14:52 267K
20260508T12Z_MSC_RDPS_GeopotentialHeight_IsbL-0275_RLatLon0.09_PT037H.grib2 2026-05-08 14:52 266K
20260508T12Z_MSC_RDPS_GeopotentialHeight_IsbL-0300_RLatLon0.09_PT037H.grib2 2026-05-08 14:52 236K
20260508T12Z_MSC_RDPS_GeopotentialHeight_IsbL-0350_RLatLon0.09_PT037H.grib2 2026-05-08 14:52 232K
20260508T12Z_MSC_RDPS_GeopotentialHeight_IsbL-0400_RLatLon0.09_PT037H.grib2 2026-05-08 14:52 228K
20260508T12Z_MSC_RDPS_GeopotentialHeight_IsbL-0450_RLatLon0.09_PT037H.grib2 2026-05-08 14:52 296K
20260508T12Z_MSC_RDPS_GeopotentialHeight_IsbL-0500_RLatLon0.09_PT037H.grib2 2026-05-08 14:52 291K
20260508T12Z_MSC_RDPS_GeopotentialHeight_IsbL-0550_RLatLon0.09_PT037H.grib2 2026-05-08 14:52 288K
20260508T12Z_MSC_RDPS_GeopotentialHeight_IsbL-0600_RLatLon0.09_PT037H.grib2 2026-05-08 14:52 285K
20260508T12Z_MSC_RDPS_GeopotentialHeight_IsbL-0650_RLatLon0.09_PT037H.grib2 2026-05-08 14:52 283K
20260508T12Z_MSC_RDPS_GeopotentialHeight_IsbL-0700_RLatLon0.09_PT037H.grib2 2026-05-08 14:52 255K
20260508T12Z_MSC_RDPS_GeopotentialHeight_IsbL-0750_RLatLon0.09_PT037H.grib2 2026-05-08 14:52 258K
20260508T12Z_MSC_RDPS_GeopotentialHeight_IsbL-0800_RLatLon0.09_PT037H.grib2 2026-05-08 14:52 347K
20260508T12Z_MSC_RDPS_GeopotentialHeight_IsbL-0850_RLatLon0.09_PT037H.grib2 2026-05-08 14:52 354K
20260508T12Z_MSC_RDPS_GeopotentialHeight_IsbL-0875_RLatLon0.09_PT037H.grib2 2026-05-08 14:52 354K
20260508T12Z_MSC_RDPS_GeopotentialHeight_IsbL-0900_RLatLon0.09_PT037H.grib2 2026-05-08 14:52 360K
20260508T12Z_MSC_RDPS_GeopotentialHeight_IsbL-0925_RLatLon0.09_PT037H.grib2 2026-05-08 14:52 364K
20260508T12Z_MSC_RDPS_GeopotentialHeight_IsbL-0950_RLatLon0.09_PT037H.grib2 2026-05-08 14:52 367K
20260508T12Z_MSC_RDPS_GeopotentialHeight_IsbL-0970_RLatLon0.09_PT037H.grib2 2026-05-08 14:52 372K
20260508T12Z_MSC_RDPS_GeopotentialHeight_IsbL-0985_RLatLon0.09_PT037H.grib2 2026-05-08 14:52 380K
20260508T12Z_MSC_RDPS_GeopotentialHeight_IsbL-1000_RLatLon0.09_PT037H.grib2 2026-05-08 14:52 392K
20260508T12Z_MSC_RDPS_GeopotentialHeight_IsbL-1015_RLatLon0.09_PT037H.grib2 2026-05-08 14:52 407K
20260508T12Z_MSC_RDPS_HighLowPressure_MSL_RLatLon0.09_PT037H.json 2026-05-08 14:44 21K
20260508T12Z_MSC_RDPS_Humidex_Sfc_RLatLon0.09_PT037H.grib2 2026-05-08 14:52 2.4M
20260508T12Z_MSC_RDPS_IcePellets-Accum1h_Sfc_RLatLon0.09_PT037H.grib2 2026-05-08 14:52 5.0K
20260508T12Z_MSC_RDPS_IcePellets-Accum_Sfc_RLatLon0.09_PT037H.grib2 2026-05-08 14:52 21K
20260508T12Z_MSC_RDPS_KIndex_Sfc_RLatLon0.09_PT037H.grib2 2026-05-08 14:52 2.5M
20260508T12Z_MSC_RDPS_LatentHeatNetFlux_Sfc_RLatLon0.09_PT037H.grib2 2026-05-08 14:52 268K
20260508T12Z_MSC_RDPS_LiftedIndex-MU-VT_IsbL-0500_RLatLon0.09_PT037H.grib2 2026-05-08 14:52 2.4M
20260508T12Z_MSC_RDPS_NetLongwaveRadiationFlux-Accum_Sfc_RLatLon0.09_PT037H.grib2 2026-05-08 14:52 516K
20260508T12Z_MSC_RDPS_NetShortwaveRadiationFlux-Accum_Sfc_RLatLon0.09_PT037H.grib2 2026-05-08 14:52 552K
20260508T12Z_MSC_RDPS_PlanetaryBoundaryLayerHeight_Sfc_RLatLon0.09_PT037H.grib2 2026-05-08 14:52 1.0M
20260508T12Z_MSC_RDPS_Precip-Accum1h_Sfc_RLatLon0.09_PT037H.grib2 2026-05-08 14:52 1.2M
20260508T12Z_MSC_RDPS_Precip-Accum_Sfc_RLatLon0.09_PT037H.grib2 2026-05-08 14:52 1.9M
20260508T12Z_MSC_RDPS_PrecipRate_Sfc_RLatLon0.09_PT037H.grib2 2026-05-08 14:52 193K
20260508T12Z_MSC_RDPS_PrecipType-Instant_Sfc_RLatLon0.09_PT037H.grib2 2026-05-08 14:52 597K
20260508T12Z_MSC_RDPS_Pressure-Trend3h_Sfc_RLatLon0.09_PT037H.grib2 2026-05-08 14:52 1.2M
20260508T12Z_MSC_RDPS_Pressure_MSL_RLatLon0.09_PT037H.grib2 2026-05-08 14:52 327K
20260508T12Z_MSC_RDPS_Pressure_PVU-1.5_RLatLon0.09_PT037H.grib2 2026-05-08 14:52 2.3M
20260508T12Z_MSC_RDPS_Pressure_PVU-1_RLatLon0.09_PT037H.grib2 2026-05-08 14:52 2.4M
20260508T12Z_MSC_RDPS_Pressure_PVU-2_RLatLon0.09_PT037H.grib2 2026-05-08 14:52 2.4M
20260508T12Z_MSC_RDPS_Pressure_Sfc_RLatLon0.09_PT037H.grib2 2026-05-08 14:52 498K
20260508T12Z_MSC_RDPS_RadiativeTemp_Sfc_RLatLon0.09_PT037H.grib2 2026-05-08 14:52 312K
20260508T12Z_MSC_RDPS_Rain-Accum1h_Sfc_RLatLon0.09_PT037H.grib2 2026-05-08 14:52 646K
20260508T12Z_MSC_RDPS_Rain-Accum_Sfc_RLatLon0.09_PT037H.grib2 2026-05-08 14:52 1.6M
20260508T12Z_MSC_RDPS_RelativeHumidity_AGL-2m_RLatLon0.09_PT037H.grib2 2026-05-08 14:52 1.0M
20260508T12Z_MSC_RDPS_RelativeHumidity_IsbL-0010_RLatLon0.09_PT037H.grib2 2026-05-08 14:52 560K
20260508T12Z_MSC_RDPS_RelativeHumidity_IsbL-0020_RLatLon0.09_PT037H.grib2 2026-05-08 14:52 649K
20260508T12Z_MSC_RDPS_RelativeHumidity_IsbL-0030_RLatLon0.09_PT037H.grib2 2026-05-08 14:52 630K
20260508T12Z_MSC_RDPS_RelativeHumidity_IsbL-0050_RLatLon0.09_PT037H.grib2 2026-05-08 14:52 354K
20260508T12Z_MSC_RDPS_RelativeHumidity_IsbL-0100_RLatLon0.09_PT037H.grib2 2026-05-08 14:52 284K
20260508T12Z_MSC_RDPS_RelativeHumidity_IsbL-0150_RLatLon0.09_PT037H.grib2 2026-05-08 14:52 423K
20260508T12Z_MSC_RDPS_RelativeHumidity_IsbL-0175_RLatLon0.09_PT037H.grib2 2026-05-08 14:52 476K
20260508T12Z_MSC_RDPS_RelativeHumidity_IsbL-0200_RLatLon0.09_PT037H.grib2 2026-05-08 14:52 548K
20260508T12Z_MSC_RDPS_RelativeHumidity_IsbL-0225_RLatLon0.09_PT037H.grib2 2026-05-08 14:52 624K
20260508T12Z_MSC_RDPS_RelativeHumidity_IsbL-0250_RLatLon0.09_PT037H.grib2 2026-05-08 14:52 699K
20260508T12Z_MSC_RDPS_RelativeHumidity_IsbL-0275_RLatLon0.09_PT037H.grib2 2026-05-08 14:52 723K
20260508T12Z_MSC_RDPS_RelativeHumidity_IsbL-0300_RLatLon0.09_PT037H.grib2 2026-05-08 14:52 756K
20260508T12Z_MSC_RDPS_RelativeHumidity_IsbL-0350_RLatLon0.09_PT037H.grib2 2026-05-08 14:52 767K
20260508T12Z_MSC_RDPS_RelativeHumidity_IsbL-0400_RLatLon0.09_PT037H.grib2 2026-05-08 14:52 787K
20260508T12Z_MSC_RDPS_RelativeHumidity_IsbL-0450_RLatLon0.09_PT037H.grib2 2026-05-08 14:52 795K
20260508T12Z_MSC_RDPS_RelativeHumidity_IsbL-0500_RLatLon0.09_PT037H.grib2 2026-05-08 14:52 804K
20260508T12Z_MSC_RDPS_RelativeHumidity_IsbL-0550_RLatLon0.09_PT037H.grib2 2026-05-08 14:52 818K
20260508T12Z_MSC_RDPS_RelativeHumidity_IsbL-0600_RLatLon0.09_PT037H.grib2 2026-05-08 14:52 844K
20260508T12Z_MSC_RDPS_RelativeHumidity_IsbL-0650_RLatLon0.09_PT037H.grib2 2026-05-08 14:52 860K
20260508T12Z_MSC_RDPS_RelativeHumidity_IsbL-0700_RLatLon0.09_PT037H.grib2 2026-05-08 14:52 896K
20260508T12Z_MSC_RDPS_RelativeHumidity_IsbL-0750_RLatLon0.09_PT037H.grib2 2026-05-08 14:52 944K
20260508T12Z_MSC_RDPS_RelativeHumidity_IsbL-0800_RLatLon0.09_PT037H.grib2 2026-05-08 14:52 1.0M
20260508T12Z_MSC_RDPS_RelativeHumidity_IsbL-0850_RLatLon0.09_PT037H.grib2 2026-05-08 14:52 1.0M
20260508T12Z_MSC_RDPS_RelativeHumidity_IsbL-0875_RLatLon0.09_PT037H.grib2 2026-05-08 14:52 1.1M
20260508T12Z_MSC_RDPS_RelativeHumidity_IsbL-0900_RLatLon0.09_PT037H.grib2 2026-05-08 14:52 1.1M
20260508T12Z_MSC_RDPS_RelativeHumidity_IsbL-0925_RLatLon0.09_PT037H.grib2 2026-05-08 14:52 1.1M
20260508T12Z_MSC_RDPS_RelativeHumidity_IsbL-0950_RLatLon0.09_PT037H.grib2 2026-05-08 14:52 1.1M
20260508T12Z_MSC_RDPS_RelativeHumidity_IsbL-0970_RLatLon0.09_PT037H.grib2 2026-05-08 14:52 1.0M
20260508T12Z_MSC_RDPS_RelativeHumidity_IsbL-0985_RLatLon0.09_PT037H.grib2 2026-05-08 14:52 1.0M
20260508T12Z_MSC_RDPS_RelativeHumidity_IsbL-1000_RLatLon0.09_PT037H.grib2 2026-05-08 14:52 1.0M
20260508T12Z_MSC_RDPS_RelativeHumidity_IsbL-1015_RLatLon0.09_PT037H.grib2 2026-05-08 14:52 1.0M
20260508T12Z_MSC_RDPS_Runoff-Accum_Sfc_RLatLon0.09_PT037H.grib2 2026-05-08 14:52 47K
20260508T12Z_MSC_RDPS_SWEATIndex_Sfc_RLatLon0.09_PT037H.grib2 2026-05-08 14:52 2.5M
20260508T12Z_MSC_RDPS_SeeingIndex_EAtm_RLatLon0.09_PT037H.grib2 2026-05-08 14:52 1.0M
20260508T12Z_MSC_RDPS_SensibleHeatNetFlux_Sfc_RLatLon0.09_PT037H.grib2 2026-05-08 14:52 226K
20260508T12Z_MSC_RDPS_ShowalterIndex_IsbL-0500_RLatLon0.09_PT037H.grib2 2026-05-08 14:52 2.6M
20260508T12Z_MSC_RDPS_SkyTransparencyIndex_EAtm_RLatLon0.09_PT037H.grib2 2026-05-08 14:52 706K
20260508T12Z_MSC_RDPS_Snow-Accum1h_Sfc_RLatLon0.09_PT037H.grib2 2026-05-08 14:52 360K
20260508T12Z_MSC_RDPS_Snow-Accum_Sfc_RLatLon0.09_PT037H.grib2 2026-05-08 14:52 650K
20260508T12Z_MSC_RDPS_SnowDensity_Sfc_RLatLon0.09_PT037H.grib2 2026-05-08 14:52 169K
20260508T12Z_MSC_RDPS_SnowDepth_Sfc_RLatLon0.09_PT037H.grib2 2026-05-08 14:52 621K
20260508T12Z_MSC_RDPS_SoilTemp_DBS-0to10cm_RLatLon0.09_PT037H.grib2 2026-05-08 14:52 240K
20260508T12Z_MSC_RDPS_SoilTemp_Sfc_RLatLon0.09_PT037H.grib2 2026-05-08 14:52 277K
20260508T12Z_MSC_RDPS_SoilVolumetricIceContent_Sfc_RLatLon0.09_PT037H.grib2 2026-05-08 14:52 144K
20260508T12Z_MSC_RDPS_SoilVolumetricWaterContent_DBS-0to10cm_RLatLon0.09_PT037H.grib2 2026-05-08 14:52 290K
20260508T12Z_MSC_RDPS_SoilVolumetricWaterContent_DBS-0to1cm_RLatLon0.09_PT037H.grib2 2026-05-08 14:52 342K
20260508T12Z_MSC_RDPS_SpecificHumidity_AGL-120m_RLatLon0.09_PT037H.grib2 2026-05-08 14:52 494K
20260508T12Z_MSC_RDPS_SpecificHumidity_AGL-2m_RLatLon0.09_PT037H.grib2 2026-05-08 14:52 670K
20260508T12Z_MSC_RDPS_SpecificHumidity_AGL-40m_RLatLon0.09_PT037H.grib2 2026-05-08 14:52 501K
20260508T12Z_MSC_RDPS_SpecificHumidity_AGL-80m_RLatLon0.09_PT037H.grib2 2026-05-08 14:52 496K
20260508T12Z_MSC_RDPS_SpecificHumidity_IsbL-0001_RLatLon0.09_PT037H.grib2 2026-05-08 14:52 360K
20260508T12Z_MSC_RDPS_SpecificHumidity_IsbL-0005_RLatLon0.09_PT037H.grib2 2026-05-08 14:52 373K
20260508T12Z_MSC_RDPS_SpecificHumidity_IsbL-0010_RLatLon0.09_PT037H.grib2 2026-05-08 14:52 400K
20260508T12Z_MSC_RDPS_SpecificHumidity_IsbL-0020_RLatLon0.09_PT037H.grib2 2026-05-08 14:52 496K
20260508T12Z_MSC_RDPS_SpecificHumidity_IsbL-0030_RLatLon0.09_PT037H.grib2 2026-05-08 14:52 376K
20260508T12Z_MSC_RDPS_SpecificHumidity_IsbL-0050_RLatLon0.09_PT037H.grib2 2026-05-08 14:52 484K
20260508T12Z_MSC_RDPS_SpecificHumidity_IsbL-0100_RLatLon0.09_PT037H.grib2 2026-05-08 14:52 419K
20260508T12Z_MSC_RDPS_SpecificHumidity_IsbL-0150_RLatLon0.09_PT037H.grib2 2026-05-08 14:52 466K
20260508T12Z_MSC_RDPS_SpecificHumidity_IsbL-0175_RLatLon0.09_PT037H.grib2 2026-05-08 14:52 441K
20260508T12Z_MSC_RDPS_SpecificHumidity_IsbL-0200_RLatLon0.09_PT037H.grib2 2026-05-08 14:52 476K
20260508T12Z_MSC_RDPS_SpecificHumidity_IsbL-0225_RLatLon0.09_PT037H.grib2 2026-05-08 14:52 468K
20260508T12Z_MSC_RDPS_SpecificHumidity_IsbL-0250_RLatLon0.09_PT037H.grib2 2026-05-08 14:52 532K
20260508T12Z_MSC_RDPS_SpecificHumidity_IsbL-0275_RLatLon0.09_PT037H.grib2 2026-05-08 14:52 487K
20260508T12Z_MSC_RDPS_SpecificHumidity_IsbL-0300_RLatLon0.09_PT037H.grib2 2026-05-08 14:52 579K
20260508T12Z_MSC_RDPS_SpecificHumidity_IsbL-0350_RLatLon0.09_PT037H.grib2 2026-05-08 14:52 568K
20260508T12Z_MSC_RDPS_SpecificHumidity_IsbL-0400_RLatLon0.09_PT037H.grib2 2026-05-08 14:52 529K
20260508T12Z_MSC_RDPS_SpecificHumidity_IsbL-0450_RLatLon0.09_PT037H.grib2 2026-05-08 14:52 583K
20260508T12Z_MSC_RDPS_SpecificHumidity_IsbL-0500_RLatLon0.09_PT037H.grib2 2026-05-08 14:52 522K
20260508T12Z_MSC_RDPS_SpecificHumidity_IsbL-0550_RLatLon0.09_PT037H.grib2 2026-05-08 14:52 592K
20260508T12Z_MSC_RDPS_SpecificHumidity_IsbL-0600_RLatLon0.09_PT037H.grib2 2026-05-08 14:52 649K
20260508T12Z_MSC_RDPS_SpecificHumidity_IsbL-0650_RLatLon0.09_PT037H.grib2 2026-05-08 14:52 570K
20260508T12Z_MSC_RDPS_SpecificHumidity_IsbL-0700_RLatLon0.09_PT037H.grib2 2026-05-08 14:52 619K
20260508T12Z_MSC_RDPS_SpecificHumidity_IsbL-0750_RLatLon0.09_PT037H.grib2 2026-05-08 14:52 682K
20260508T12Z_MSC_RDPS_SpecificHumidity_IsbL-0800_RLatLon0.09_PT037H.grib2 2026-05-08 14:52 768K
20260508T12Z_MSC_RDPS_SpecificHumidity_IsbL-0850_RLatLon0.09_PT037H.grib2 2026-05-08 14:52 828K
20260508T12Z_MSC_RDPS_SpecificHumidity_IsbL-0875_RLatLon0.09_PT037H.grib2 2026-05-08 14:52 847K
20260508T12Z_MSC_RDPS_SpecificHumidity_IsbL-0900_RLatLon0.09_PT037H.grib2 2026-05-08 14:52 858K
20260508T12Z_MSC_RDPS_SpecificHumidity_IsbL-0925_RLatLon0.09_PT037H.grib2 2026-05-08 14:52 721K
20260508T12Z_MSC_RDPS_SpecificHumidity_IsbL-0950_RLatLon0.09_PT037H.grib2 2026-05-08 14:52 717K
20260508T12Z_MSC_RDPS_SpecificHumidity_IsbL-0970_RLatLon0.09_PT037H.grib2 2026-05-08 14:52 711K
20260508T12Z_MSC_RDPS_SpecificHumidity_IsbL-0985_RLatLon0.09_PT037H.grib2 2026-05-08 14:52 700K
20260508T12Z_MSC_RDPS_SpecificHumidity_IsbL-1000_RLatLon0.09_PT037H.grib2 2026-05-08 14:52 693K
20260508T12Z_MSC_RDPS_SpecificHumidity_IsbL-1015_RLatLon0.09_PT037H.grib2 2026-05-08 14:52 684K
20260508T12Z_MSC_RDPS_SpecificHumidity_Sfc_RLatLon0.09_PT037H.grib2 2026-05-08 14:52 341K
20260508T12Z_MSC_RDPS_StormRelativeHelicity_EtaL-10000_RLatLon0.09_PT037H.grib2 2026-05-08 14:52 1.1M
20260508T12Z_MSC_RDPS_StormSeverityIndex_EtaL-10000_RLatLon0.09_PT037H.grib2 2026-05-08 14:52 1.1M
20260508T12Z_MSC_RDPS_Thickness_IsbL-0850to0700_RLatLon0.09_PT037H.grib2 2026-05-08 14:52 250K
20260508T12Z_MSC_RDPS_Thickness_IsbL-1000to0500_RLatLon0.09_PT037H.grib2 2026-05-08 14:52 196K
20260508T12Z_MSC_RDPS_Thickness_IsbL-1000to0850_RLatLon0.09_PT037H.grib2 2026-05-08 14:52 261K
20260508T12Z_MSC_RDPS_TotalCloudCover_Sfc_RLatLon0.09_PT037H.grib2 2026-05-08 14:52 661K
20260508T12Z_MSC_RDPS_TotalTotalsIndex_Sfc_RLatLon0.09_PT037H.grib2 2026-05-08 14:52 2.4M
20260508T12Z_MSC_RDPS_UVIndex-ClearSky_Sfc_RLatLon0.09_PT037H.grib2 2026-05-08 14:52 167K
20260508T12Z_MSC_RDPS_UVIndex_Sfc_RLatLon0.09_PT037H.grib2 2026-05-08 14:52 339K
20260508T12Z_MSC_RDPS_UpwardLongwaveRadiationFlux_NTAtm_RLatLon0.09_PT037H.grib2 2026-05-08 14:52 379K
20260508T12Z_MSC_RDPS_UpwardShortwaveRadiationFlux_NTAtm_RLatLon0.09_PT037H.grib2 2026-05-08 14:52 303K
20260508T12Z_MSC_RDPS_VerticalVelocity_IsbL-0250_RLatLon0.09_PT037H.grib2 2026-05-08 14:52 578K
20260508T12Z_MSC_RDPS_VerticalVelocity_IsbL-0500_RLatLon0.09_PT037H.grib2 2026-05-08 14:52 541K
20260508T12Z_MSC_RDPS_VerticalVelocity_IsbL-0700_RLatLon0.09_PT037H.grib2 2026-05-08 14:52 602K
20260508T12Z_MSC_RDPS_VerticalVelocity_IsbL-0850_RLatLon0.09_PT037H.grib2 2026-05-08 14:52 704K
20260508T12Z_MSC_RDPS_VerticalWindShear_EtaL-6500_RLatLon0.09_PT037H.grib2 2026-05-08 14:52 1.2M
20260508T12Z_MSC_RDPS_WindChill_Sfc_RLatLon0.09_PT037H.grib2 2026-05-08 14:52 1.2M
20260508T12Z_MSC_RDPS_WindDir_AGL-10m_RLatLon0.09_PT037H.grib2 2026-05-08 14:52 948K
20260508T12Z_MSC_RDPS_WindDir_AGL-120m_RLatLon0.09_PT037H.grib2 2026-05-08 14:52 594K
20260508T12Z_MSC_RDPS_WindDir_AGL-40m_RLatLon0.09_PT037H.grib2 2026-05-08 14:52 619K
20260508T12Z_MSC_RDPS_WindDir_AGL-80m_RLatLon0.09_PT037H.grib2 2026-05-08 14:52 604K
20260508T12Z_MSC_RDPS_WindDir_IsbL-0001_RLatLon0.09_PT037H.grib2 2026-05-08 14:52 288K
20260508T12Z_MSC_RDPS_WindDir_IsbL-0005_RLatLon0.09_PT037H.grib2 2026-05-08 14:52 363K
20260508T12Z_MSC_RDPS_WindDir_IsbL-0010_RLatLon0.09_PT037H.grib2 2026-05-08 14:52 386K
20260508T12Z_MSC_RDPS_WindDir_IsbL-0020_RLatLon0.09_PT037H.grib2 2026-05-08 14:52 435K
20260508T12Z_MSC_RDPS_WindDir_IsbL-0030_RLatLon0.09_PT037H.grib2 2026-05-08 14:52 428K
20260508T12Z_MSC_RDPS_WindDir_IsbL-0050_RLatLon0.09_PT037H.grib2 2026-05-08 14:52 430K
20260508T12Z_MSC_RDPS_WindDir_IsbL-0100_RLatLon0.09_PT037H.grib2 2026-05-08 14:52 422K
20260508T12Z_MSC_RDPS_WindDir_IsbL-0150_RLatLon0.09_PT037H.grib2 2026-05-08 14:52 425K
20260508T12Z_MSC_RDPS_WindDir_IsbL-0175_RLatLon0.09_PT037H.grib2 2026-05-08 14:52 450K
20260508T12Z_MSC_RDPS_WindDir_IsbL-0200_RLatLon0.09_PT037H.grib2 2026-05-08 14:52 462K
20260508T12Z_MSC_RDPS_WindDir_IsbL-0225_RLatLon0.09_PT037H.grib2 2026-05-08 14:52 465K
20260508T12Z_MSC_RDPS_WindDir_IsbL-0250_RLatLon0.09_PT037H.grib2 2026-05-08 14:52 467K
20260508T12Z_MSC_RDPS_WindDir_IsbL-0275_RLatLon0.09_PT037H.grib2 2026-05-08 14:52 481K
20260508T12Z_MSC_RDPS_WindDir_IsbL-0300_RLatLon0.09_PT037H.grib2 2026-05-08 14:52 476K
20260508T12Z_MSC_RDPS_WindDir_IsbL-0350_RLatLon0.09_PT037H.grib2 2026-05-08 14:52 501K
20260508T12Z_MSC_RDPS_WindDir_IsbL-0400_RLatLon0.09_PT037H.grib2 2026-05-08 14:52 529K
20260508T12Z_MSC_RDPS_WindDir_IsbL-0450_RLatLon0.09_PT037H.grib2 2026-05-08 14:52 552K
20260508T12Z_MSC_RDPS_WindDir_IsbL-0500_RLatLon0.09_PT037H.grib2 2026-05-08 14:52 569K
20260508T12Z_MSC_RDPS_WindDir_IsbL-0550_RLatLon0.09_PT037H.grib2 2026-05-08 14:52 582K
20260508T12Z_MSC_RDPS_WindDir_IsbL-0600_RLatLon0.09_PT037H.grib2 2026-05-08 14:52 602K
20260508T12Z_MSC_RDPS_WindDir_IsbL-0650_RLatLon0.09_PT037H.grib2 2026-05-08 14:52 641K
20260508T12Z_MSC_RDPS_WindDir_IsbL-0700_RLatLon0.09_PT037H.grib2 2026-05-08 14:52 685K
20260508T12Z_MSC_RDPS_WindDir_IsbL-0750_RLatLon0.09_PT037H.grib2 2026-05-08 14:52 737K
20260508T12Z_MSC_RDPS_WindDir_IsbL-0800_RLatLon0.09_PT037H.grib2 2026-05-08 14:52 800K
20260508T12Z_MSC_RDPS_WindDir_IsbL-0850_RLatLon0.09_PT037H.grib2 2026-05-08 14:52 860K
20260508T12Z_MSC_RDPS_WindDir_IsbL-0875_RLatLon0.09_PT037H.grib2 2026-05-08 14:52 877K
20260508T12Z_MSC_RDPS_WindDir_IsbL-0900_RLatLon0.09_PT037H.grib2 2026-05-08 14:52 890K
20260508T12Z_MSC_RDPS_WindDir_IsbL-0925_RLatLon0.09_PT037H.grib2 2026-05-08 14:52 897K
20260508T12Z_MSC_RDPS_WindDir_IsbL-0950_RLatLon0.09_PT037H.grib2 2026-05-08 14:52 898K
20260508T12Z_MSC_RDPS_WindDir_IsbL-0970_RLatLon0.09_PT037H.grib2 2026-05-08 14:52 899K
20260508T12Z_MSC_RDPS_WindDir_IsbL-0985_RLatLon0.09_PT037H.grib2 2026-05-08 14:52 910K
20260508T12Z_MSC_RDPS_WindDir_IsbL-1000_RLatLon0.09_PT037H.grib2 2026-05-08 14:52 925K
20260508T12Z_MSC_RDPS_WindDir_IsbL-1015_RLatLon0.09_PT037H.grib2 2026-05-08 14:52 942K
20260508T12Z_MSC_RDPS_WindGust-Max_AGL-10m_RLatLon0.09_PT037H.grib2 2026-05-08 14:52 1.0M
20260508T12Z_MSC_RDPS_WindGust-Min_AGL-10m_RLatLon0.09_PT037H.grib2 2026-05-08 14:52 1.0M
20260508T12Z_MSC_RDPS_WindGust_AGL-10m_RLatLon0.09_PT037H.grib2 2026-05-08 14:52 1.0M
20260508T12Z_MSC_RDPS_WindSpeed_AGL-10m_RLatLon0.09_PT037H.grib2 2026-05-08 14:52 841K
20260508T12Z_MSC_RDPS_WindSpeed_AGL-120m_RLatLon0.09_PT037H.grib2 2026-05-08 14:52 538K
20260508T12Z_MSC_RDPS_WindSpeed_AGL-40m_RLatLon0.09_PT037H.grib2 2026-05-08 14:52 673K
20260508T12Z_MSC_RDPS_WindSpeed_AGL-80m_RLatLon0.09_PT037H.grib2 2026-05-08 14:52 539K
20260508T12Z_MSC_RDPS_WindSpeed_IsbL-0001_RLatLon0.09_PT037H.grib2 2026-05-08 14:52 330K
20260508T12Z_MSC_RDPS_WindSpeed_IsbL-0005_RLatLon0.09_PT037H.grib2 2026-05-08 14:52 385K
20260508T12Z_MSC_RDPS_WindSpeed_IsbL-0010_RLatLon0.09_PT037H.grib2 2026-05-08 14:52 402K
20260508T12Z_MSC_RDPS_WindSpeed_IsbL-0020_RLatLon0.09_PT037H.grib2 2026-05-08 14:52 326K
20260508T12Z_MSC_RDPS_WindSpeed_IsbL-0030_RLatLon0.09_PT037H.grib2 2026-05-08 14:52 322K
20260508T12Z_MSC_RDPS_WindSpeed_IsbL-0050_RLatLon0.09_PT037H.grib2 2026-05-08 14:52 345K
20260508T12Z_MSC_RDPS_WindSpeed_IsbL-0100_RLatLon0.09_PT037H.grib2 2026-05-08 14:52 475K
20260508T12Z_MSC_RDPS_WindSpeed_IsbL-0150_RLatLon0.09_PT037H.grib2 2026-05-08 14:52 381K
20260508T12Z_MSC_RDPS_WindSpeed_IsbL-0175_RLatLon0.09_PT037H.grib2 2026-05-08 14:52 427K
20260508T12Z_MSC_RDPS_WindSpeed_IsbL-0200_RLatLon0.09_PT037H.grib2 2026-05-08 14:52 442K
20260508T12Z_MSC_RDPS_WindSpeed_IsbL-0225_RLatLon0.09_PT037H.grib2 2026-05-08 14:52 449K
20260508T12Z_MSC_RDPS_WindSpeed_IsbL-0250_RLatLon0.09_PT037H.grib2 2026-05-08 14:52 453K
20260508T12Z_MSC_RDPS_WindSpeed_IsbL-0275_RLatLon0.09_PT037H.grib2 2026-05-08 14:52 472K
20260508T12Z_MSC_RDPS_WindSpeed_IsbL-0300_RLatLon0.09_PT037H.grib2 2026-05-08 14:52 468K
20260508T12Z_MSC_RDPS_WindSpeed_IsbL-0350_RLatLon0.09_PT037H.grib2 2026-05-08 14:52 476K
20260508T12Z_MSC_RDPS_WindSpeed_IsbL-0400_RLatLon0.09_PT037H.grib2 2026-05-08 14:52 480K
20260508T12Z_MSC_RDPS_WindSpeed_IsbL-0450_RLatLon0.09_PT037H.grib2 2026-05-08 14:52 467K
20260508T12Z_MSC_RDPS_WindSpeed_IsbL-0500_RLatLon0.09_PT037H.grib2 2026-05-08 14:52 469K
20260508T12Z_MSC_RDPS_WindSpeed_IsbL-0550_RLatLon0.09_PT037H.grib2 2026-05-08 14:52 470K
20260508T12Z_MSC_RDPS_WindSpeed_IsbL-0600_RLatLon0.09_PT037H.grib2 2026-05-08 14:52 479K
20260508T12Z_MSC_RDPS_WindSpeed_IsbL-0650_RLatLon0.09_PT037H.grib2 2026-05-08 14:52 619K
20260508T12Z_MSC_RDPS_WindSpeed_IsbL-0700_RLatLon0.09_PT037H.grib2 2026-05-08 14:52 689K
20260508T12Z_MSC_RDPS_WindSpeed_IsbL-0750_RLatLon0.09_PT037H.grib2 2026-05-08 14:52 724K
20260508T12Z_MSC_RDPS_WindSpeed_IsbL-0800_RLatLon0.09_PT037H.grib2 2026-05-08 14:52 769K
20260508T12Z_MSC_RDPS_WindSpeed_IsbL-0850_RLatLon0.09_PT037H.grib2 2026-05-08 14:52 819K
20260508T12Z_MSC_RDPS_WindSpeed_IsbL-0875_RLatLon0.09_PT037H.grib2 2026-05-08 14:52 837K
20260508T12Z_MSC_RDPS_WindSpeed_IsbL-0900_RLatLon0.09_PT037H.grib2 2026-05-08 14:52 854K
20260508T12Z_MSC_RDPS_WindSpeed_IsbL-0925_RLatLon0.09_PT037H.grib2 2026-05-08 14:52 866K
20260508T12Z_MSC_RDPS_WindSpeed_IsbL-0950_RLatLon0.09_PT037H.grib2 2026-05-08 14:52 870K
20260508T12Z_MSC_RDPS_WindSpeed_IsbL-0970_RLatLon0.09_PT037H.grib2 2026-05-08 14:52 865K
20260508T12Z_MSC_RDPS_WindSpeed_IsbL-0985_RLatLon0.09_PT037H.grib2 2026-05-08 14:52 860K
20260508T12Z_MSC_RDPS_WindSpeed_IsbL-1000_RLatLon0.09_PT037H.grib2 2026-05-08 14:52 853K
20260508T12Z_MSC_RDPS_WindSpeed_IsbL-1015_RLatLon0.09_PT037H.grib2 2026-05-08 14:52 844K
20260508T12Z_MSC_RDPS_WindU_AGL-10m_RLatLon0.09_PT037H.grib2 2026-05-08 14:52 432K
20260508T12Z_MSC_RDPS_WindU_AGL-120m_RLatLon0.09_PT037H.grib2 2026-05-08 14:52 535K
20260508T12Z_MSC_RDPS_WindU_AGL-40m_RLatLon0.09_PT037H.grib2 2026-05-08 14:52 538K
20260508T12Z_MSC_RDPS_WindU_AGL-80m_RLatLon0.09_PT037H.grib2 2026-05-08 14:52 536K
20260508T12Z_MSC_RDPS_WindU_IsbL-0001_RLatLon0.09_PT037H.grib2 2026-05-08 14:52 245K
20260508T12Z_MSC_RDPS_WindU_IsbL-0005_RLatLon0.09_PT037H.grib2 2026-05-08 14:52 289K
20260508T12Z_MSC_RDPS_WindU_IsbL-0010_RLatLon0.09_PT037H.grib2 2026-05-08 14:52 300K
20260508T12Z_MSC_RDPS_WindU_IsbL-0020_RLatLon0.09_PT037H.grib2 2026-05-08 14:52 315K
20260508T12Z_MSC_RDPS_WindU_IsbL-0030_RLatLon0.09_PT037H.grib2 2026-05-08 14:52 313K
20260508T12Z_MSC_RDPS_WindU_IsbL-0050_RLatLon0.09_PT037H.grib2 2026-05-08 14:52 339K
20260508T12Z_MSC_RDPS_WindU_IsbL-0100_RLatLon0.09_PT037H.grib2 2026-05-08 14:52 432K
20260508T12Z_MSC_RDPS_WindU_IsbL-0150_RLatLon0.09_PT037H.grib2 2026-05-08 14:52 397K
20260508T12Z_MSC_RDPS_WindU_IsbL-0175_RLatLon0.09_PT037H.grib2 2026-05-08 14:52 421K
20260508T12Z_MSC_RDPS_WindU_IsbL-0200_RLatLon0.09_PT037H.grib2 2026-05-08 14:52 435K
20260508T12Z_MSC_RDPS_WindU_IsbL-0225_RLatLon0.09_PT037H.grib2 2026-05-08 14:52 442K
20260508T12Z_MSC_RDPS_WindU_IsbL-0250_RLatLon0.09_PT037H.grib2 2026-05-08 14:52 442K
20260508T12Z_MSC_RDPS_WindU_IsbL-0275_RLatLon0.09_PT037H.grib2 2026-05-08 14:52 459K
20260508T12Z_MSC_RDPS_WindU_IsbL-0300_RLatLon0.09_PT037H.grib2 2026-05-08 14:52 353K
20260508T12Z_MSC_RDPS_WindU_IsbL-0350_RLatLon0.09_PT037H.grib2 2026-05-08 14:52 360K
20260508T12Z_MSC_RDPS_WindU_IsbL-0400_RLatLon0.09_PT037H.grib2 2026-05-08 14:52 468K
20260508T12Z_MSC_RDPS_WindU_IsbL-0450_RLatLon0.09_PT037H.grib2 2026-05-08 14:52 472K
20260508T12Z_MSC_RDPS_WindU_IsbL-0500_RLatLon0.09_PT037H.grib2 2026-05-08 14:52 475K
20260508T12Z_MSC_RDPS_WindU_IsbL-0550_RLatLon0.09_PT037H.grib2 2026-05-08 14:52 477K
20260508T12Z_MSC_RDPS_WindU_IsbL-0600_RLatLon0.09_PT037H.grib2 2026-05-08 14:52 487K
20260508T12Z_MSC_RDPS_WindU_IsbL-0650_RLatLon0.09_PT037H.grib2 2026-05-08 14:52 490K
20260508T12Z_MSC_RDPS_WindU_IsbL-0700_RLatLon0.09_PT037H.grib2 2026-05-08 14:52 514K
20260508T12Z_MSC_RDPS_WindU_IsbL-0750_RLatLon0.09_PT037H.grib2 2026-05-08 14:52 544K
20260508T12Z_MSC_RDPS_WindU_IsbL-0800_RLatLon0.09_PT037H.grib2 2026-05-08 14:52 582K
20260508T12Z_MSC_RDPS_WindU_IsbL-0850_RLatLon0.09_PT037H.grib2 2026-05-08 14:52 626K
20260508T12Z_MSC_RDPS_WindU_IsbL-0875_RLatLon0.09_PT037H.grib2 2026-05-08 14:52 641K
20260508T12Z_MSC_RDPS_WindU_IsbL-0900_RLatLon0.09_PT037H.grib2 2026-05-08 14:52 654K
20260508T12Z_MSC_RDPS_WindU_IsbL-0925_RLatLon0.09_PT037H.grib2 2026-05-08 14:52 662K
20260508T12Z_MSC_RDPS_WindU_IsbL-0950_RLatLon0.09_PT037H.grib2 2026-05-08 14:52 661K
20260508T12Z_MSC_RDPS_WindU_IsbL-0970_RLatLon0.09_PT037H.grib2 2026-05-08 14:52 655K
20260508T12Z_MSC_RDPS_WindU_IsbL-0985_RLatLon0.09_PT037H.grib2 2026-05-08 14:52 791K
20260508T12Z_MSC_RDPS_WindU_IsbL-1000_RLatLon0.09_PT037H.grib2 2026-05-08 14:52 832K
20260508T12Z_MSC_RDPS_WindU_IsbL-1015_RLatLon0.09_PT037H.grib2 2026-05-08 14:52 825K
20260508T12Z_MSC_RDPS_WindV_AGL-10m_RLatLon0.09_PT037H.grib2 2026-05-08 14:52 432K
20260508T12Z_MSC_RDPS_WindV_AGL-120m_RLatLon0.09_PT037H.grib2 2026-05-08 14:52 534K
20260508T12Z_MSC_RDPS_WindV_AGL-40m_RLatLon0.09_PT037H.grib2 2026-05-08 14:52 538K
20260508T12Z_MSC_RDPS_WindV_AGL-80m_RLatLon0.09_PT037H.grib2 2026-05-08 14:52 535K
20260508T12Z_MSC_RDPS_WindV_IsbL-0001_RLatLon0.09_PT037H.grib2 2026-05-08 14:52 293K
20260508T12Z_MSC_RDPS_WindV_IsbL-0005_RLatLon0.09_PT037H.grib2 2026-05-08 14:52 288K
20260508T12Z_MSC_RDPS_WindV_IsbL-0010_RLatLon0.09_PT037H.grib2 2026-05-08 14:52 301K
20260508T12Z_MSC_RDPS_WindV_IsbL-0020_RLatLon0.09_PT037H.grib2 2026-05-08 14:52 317K
20260508T12Z_MSC_RDPS_WindV_IsbL-0030_RLatLon0.09_PT037H.grib2 2026-05-08 14:52 314K
20260508T12Z_MSC_RDPS_WindV_IsbL-0050_RLatLon0.09_PT037H.grib2 2026-05-08 14:52 339K
20260508T12Z_MSC_RDPS_WindV_IsbL-0100_RLatLon0.09_PT037H.grib2 2026-05-08 14:52 428K
20260508T12Z_MSC_RDPS_WindV_IsbL-0150_RLatLon0.09_PT037H.grib2 2026-05-08 14:52 395K
20260508T12Z_MSC_RDPS_WindV_IsbL-0175_RLatLon0.09_PT037H.grib2 2026-05-08 14:52 419K
20260508T12Z_MSC_RDPS_WindV_IsbL-0200_RLatLon0.09_PT037H.grib2 2026-05-08 14:52 335K
20260508T12Z_MSC_RDPS_WindV_IsbL-0225_RLatLon0.09_PT037H.grib2 2026-05-08 14:52 340K
20260508T12Z_MSC_RDPS_WindV_IsbL-0250_RLatLon0.09_PT037H.grib2 2026-05-08 14:52 368K
20260508T12Z_MSC_RDPS_WindV_IsbL-0275_RLatLon0.09_PT037H.grib2 2026-05-08 14:52 382K
20260508T12Z_MSC_RDPS_WindV_IsbL-0300_RLatLon0.09_PT037H.grib2 2026-05-08 14:52 377K
20260508T12Z_MSC_RDPS_WindV_IsbL-0350_RLatLon0.09_PT037H.grib2 2026-05-08 14:52 360K
20260508T12Z_MSC_RDPS_WindV_IsbL-0400_RLatLon0.09_PT037H.grib2 2026-05-08 14:52 363K
20260508T12Z_MSC_RDPS_WindV_IsbL-0450_RLatLon0.09_PT037H.grib2 2026-05-08 14:52 365K
20260508T12Z_MSC_RDPS_WindV_IsbL-0500_RLatLon0.09_PT037H.grib2 2026-05-08 14:52 471K
20260508T12Z_MSC_RDPS_WindV_IsbL-0550_RLatLon0.09_PT037H.grib2 2026-05-08 14:52 473K
20260508T12Z_MSC_RDPS_WindV_IsbL-0600_RLatLon0.09_PT037H.grib2 2026-05-08 14:52 483K
20260508T12Z_MSC_RDPS_WindV_IsbL-0650_RLatLon0.09_PT037H.grib2 2026-05-08 14:52 500K
20260508T12Z_MSC_RDPS_WindV_IsbL-0700_RLatLon0.09_PT037H.grib2 2026-05-08 14:52 509K
20260508T12Z_MSC_RDPS_WindV_IsbL-0750_RLatLon0.09_PT037H.grib2 2026-05-08 14:52 538K
20260508T12Z_MSC_RDPS_WindV_IsbL-0800_RLatLon0.09_PT037H.grib2 2026-05-08 14:52 578K
20260508T12Z_MSC_RDPS_WindV_IsbL-0850_RLatLon0.09_PT037H.grib2 2026-05-08 14:52 623K
20260508T12Z_MSC_RDPS_WindV_IsbL-0875_RLatLon0.09_PT037H.grib2 2026-05-08 14:52 638K
20260508T12Z_MSC_RDPS_WindV_IsbL-0900_RLatLon0.09_PT037H.grib2 2026-05-08 14:52 651K
20260508T12Z_MSC_RDPS_WindV_IsbL-0925_RLatLon0.09_PT037H.grib2 2026-05-08 14:52 659K
20260508T12Z_MSC_RDPS_WindV_IsbL-0950_RLatLon0.09_PT037H.grib2 2026-05-08 14:52 661K
20260508T12Z_MSC_RDPS_WindV_IsbL-0970_RLatLon0.09_PT037H.grib2 2026-05-08 14:52 657K
20260508T12Z_MSC_RDPS_WindV_IsbL-0985_RLatLon0.09_PT037H.grib2 2026-05-08 14:52 793K
20260508T12Z_MSC_RDPS_WindV_IsbL-1000_RLatLon0.09_PT037H.grib2 2026-05-08 14:52 787K
20260508T12Z_MSC_RDPS_WindV_IsbL-1015_RLatLon0.09_PT037H.grib2 2026-05-08 14:52 827K